Temp
24 24 24 24 24 23 23 23 23 23 23 23 22 22 22 22 21 21 21 21 20 20 20 20 20 20 19 19 19 19 19 19 19 19 19 19 19 19 19 19 19 18
24 24 24 24 24 23 23 23 23 23 23 23 23 22 22 22 21 21 21 21 20 20 20 20 20 19 19 19 19 19 19 19 19 19 19 19 19 19 19 19 19 18
24 24 24 24 23 23 23 23 23 23 23 23 23 22 22 22 21 21 21 20 20 20 20 20 20 19 19 19 19 19 19 19 19 19 19 19 19 19 19 19 19 19
24 24 24 23 23 23 23 23 23 23 23 23 22 22 22 21 21 21 20 20 20 20 20 20 20 19 19 19 19 19 19 19 19 19 19 19 19 19 19 19 19 19
24 24 24 24 23 23 23 23 23 23 23 23 22 22 22 21 21 21 20 20 20 20 20 20 20 20 19 19 19 19 19 19 19 20 19 19 19 19 19 19 19 19
24 24 24 24 23 23 23 23 23 23 23 23 22 22 22 21 21 21 21 20 20 20 20 20 20 20 20 20 20 20 20 20 19 20 19 19 19 19 19 19 19 19
23 23 23 23 23 23 23 23 23 23 23 23 22 22 21 21 21 21 21 21 20 20 20 20 20 20 20 20 20 20 20 20 20 20 20 19 19 19 19 19 19 19
23 23 23 22 22 22 23 23 23 23 23 23 22 22 22 21 21 21 21 21 21 20 21 20 20 20 20 20 20 20 20 20 20 20 20 20 20 20 19 19 19 19
22 22 21 22 22 22 23 23 23 23 23 23 22 22 22 21 21 21 21 21 21 21 21 21 21 21 20 20 20 20 20 20 20 20 20 20 20 20 19 19 19 19
20 20 20 21 22 23 23 23 23 23 23 23 22 22 22 22 21 21 21 21 21 21 21 21 21 21 21 21 21 20 20 20 20 20 20 20 20 20 20 19 19 19
20 20 21 22 23 23 23 23 23 23 23 23 22 22 22 22 21 21 21 21 21 21 21 21 21 21 21 21 21 21 20 20 20 20 20 20 20 20 20 20 19 19
20 21 22 23 23 23 23 23 23 23 23 23 22 22 22 22 21 21 21 21 21 21 21 21 21 21 21 21 21 21 21 20 20 20 20 20 20 20 20 20 20 19
21 22 23 23 23 23 23 23 23 23 23 23 22 22 22 22 22 21 21 21 21 21 21 21 21 21 21 21 21 21 21 21 21 21 21 21 20 20 19 19 19 19
20 22 24 23 22 23 23 23 23 23 23 23 23 22 22 22 22 21 21 21 21 21 21 21 21 21 21 21 21 21 21 21 21 21 21 21 20 20 20 19 19 19
20 22 22 21 21 23 24 23 23 23 23 23 23 22 22 22 22 21 21 21 21 21 21 21 21 21 21 21 21 21 21 21 21 21 20 20 20 20 19 19 19 19
20 20 19 19 20 23 24 24 24 23 23 23 23 22 22 21 21 21 21 21 21 21 21 21 21 21 21 22 22 21 21 21 21 20 20 20 20 19 19 19 20 20
19 19 19 19 21 22 24 24 24 23 23 23 22 22 22 21 21 21 21 21 21 21 21 21 21 21 22 22 21 21 21 21 21 20 20 20 20 19 19 19 19 20
19 19 20 21 21 22 23 24 23 21 22 22 22 22 22 21 21 21 21 21 21 21 21 21 21 21 21 22 21 21 21 21 20 20 20 20 20 20 20 20 20 20
19 20 20 21 21 21 23 23 22 20 21 22 22 22 21 21 20 21 21 20 20 21 21 21 21 21 21 21 21 21 21 20 20 20 20 20 20 20 20 20 20 20
19 20 21 21 20 21 21 22 21 20 20 22 22 22 21 20 20 20 20 20 20 21 21 21 21 21 21 21 21 21 21 20 20 20 20 20 20 20 20 20 20 20
19 20 21 21 21 20 20 20 20 20 20 21 22 22 21 20 20 20 20 20 21 22 22 21 21 22 22 22 21 21 21 20 20 20 20 20 20 20 20 20 20 20
19 20 21 21 20 20 20 20 19 19 19 20 21 21 21 20 20 20 20 20 21 22 22 22 22 22 22 22 22 21 21 20 20 20 20 20 20 20 20 20 20 20
19 20 21 20 19 20 20 19 19 19 19 20 20 20 20 20 20 19 20 20 21 21 22 22 22 22 22 22 22 21 20 20 20 20 19 19 19 18 18 18 19 19
19 20 21 20 19 19 19 19 19 19 19 20 20 20 20 20 19 19 20 20 21 21 22 21 21 22 22 22 22 21 20 19 19 19 19 18 17 17 17 18 18 18
19 20 21 20 18 19 19 19 19 19 20 20 20 20 20 20 20 20 20 20 20 21 21 20 20 21 22 22 21 21 20 19 18 18 17 17 17 16 17 18 17 16
19 20 21 20 19 19 19 18 19 19 20 20 20 19 19 19 20 20 20 19 19 20 20 20 20 20 21 21 20 20 19 18 17 17 17 17 17 16 16 17 16 16
Height
803 805 807 809 811 813 815 817 818 820 821 822 824 825 826 827 829 830 831 832 833 834 835 835 836 836 836 837 837 838 838 839 839 839 839 840 840 840 840 840 840 840
800 802 804 806 809 811 813 815 817 818 819 821 823 824 825 827 828 829 830 831 832 833 834 834 835 835 835 836 836 837 837 838 838 838 839 839 839 839 839 840 840 840
797 799 802 804 806 809 811 813 815 817 819 820 821 823 824 825 827 828 829 830 831 832 832 833 834 834 835 835 835 836 836 837 837 837 838 838 838 838 838 839 839 839
794 797 799 803 805 807 810 812 814 816 818 819 820 821 823 824 825 826 827 828 829 830 831 832 833 833 834 834 834 835 835 836 836 836 837 837 837 837 838 838 838 837
791 794 797 800 803 806 808 811 813 814 816 817 818 819 820 821 823 824 825 826 827 828 829 830 832 832 833 834 834 834 834 835 835 835 836 836 836 836 836 837 836 836
789 792 795 798 800 804 807 809 811 813 814 815 816 817 818 819 820 822 823 824 826 827 828 829 830 831 832 832 833 833 833 834 834 834 834 834 834 834 835 835 835 835
787 790 793 796 799 803 806 808 810 811 812 814 815 815 816 817 819 820 821 823 824 825 826 827 828 829 830 831 831 832 832 833 833 833 833 833 832 832 833 833 833 833
785 789 792 796 800 804 806 808 810 810 811 813 814 815 816 817 818 819 820 821 823 824 824 825 826 826 828 829 829 830 831 831 831 831 831 831 831 831 831 831 831 831
785 790 795 799 802 804 806 808 809 810 811 812 813 814 815 815 816 817 818 819 820 821 822 823 824 824 826 826 827 829 829 830 830 829 829 829 829 829 829 829 829 829
790 796 800 802 802 802 802 804 806 808 810 811 812 812 812 813 814 815 816 817 818 818 819 820 821 822 823 824 825 826 827 827 827 827 827 827 827 827 827 827 827 827
793 797 798 796 796 798 799 801 804 806 808 809 810 810 810 811 812 812 813 813 814 815 816 817 819 820 821 821 822 823 824 824 825 825 824 824 824 824 824 824 824 824
783 784 785 785 788 794 798 801 803 805 806 807 807 807 807 808 809 810 810 810 811 812 813 815 816 817 818 819 820 820 821 821 821 821 821 822 822 822 822 822 822 822
766 770 774 778 784 791 796 799 801 803 803 803 804 804 805 805 806 807 808 808 809 810 812 812 813 815 816 816 817 817 817 818 818 818 818 819 819 819 819 819 819 820
761 765 768 773 780 786 790 793 795 798 799 800 800 801 801 802 803 805 806 806 807 808 809 810 811 812 813 813 814 814 814 815 815 815 816 816 816 816 816 817 817 817
761 763 767 774 780 783 784 786 787 790 794 796 796 797 798 799 800 802 803 804 804 805 807 808 808 809 810 811 811 812 812 813 813 813 814 814 814 814 814 814 814 814
760 766 773 780 781 779 779 779 778 781 785 789 791 792 794 795 797 799 800 801 802 802 804 805 805 806 807 808 809 810 810 810 810 811 812 812 812 812 812 811 812 812
761 767 772 775 773 771 772 772 774 776 779 783 787 789 791 792 794 796 796 797 798 799 800 801 802 802 804 805 806 807 807 807 808 808 809 810 810 809 809 809 809 809
758 761 763 764 764 764 766 768 772 775 778 781 784 787 788 789 790 792 792 793 794 796 797 797 798 799 801 802 803 804 805 805 805 806 806 807 807 806 806 806 806 806
754 756 758 760 761 762 764 766 769 773 775 778 781 784 785 786 787 788 789 790 792 793 794 794 795 796 798 799 800 801 802 802 803 803 803 804 804 803 804 803 803 803
751 754 756 756 757 760 763 764 766 769 771 774 778 781 782 783 784 786 786 788 789 791 791 791 792 794 795 796 797 798 799 800 800 801 801 801 800 801 801 800 800 800
749 751 752 752 754 759 762 763 764 767 770 773 775 778 779 780 782 783 784 786 787 788 789 789 789 791 792 792 793 795 796 797 797 798 798 798 798 798 798 797 797 797
745 746 747 750 753 757 759 760 763 765 768 771 773 775 777 778 780 781 782 784 785 786 786 786 786 787 788 789 790 791 793 794 794 794 795 795 795 795 795 794 794 794
741 743 746 749 750 752 754 755 757 760 764 768 771 772 774 776 777 778 780 782 783 783 784 784 783 784 785 785 786 788 789 791 791 791 791 791 792 792 792 791 791 791
739 741 743 744 745 747 749 751 753 756 761 765 767 769 771 773 775 777 778 779 780 780 781 781 780 781 782 783 784 785 786 788 788 788 788 789 788 789 789 788 788 787
737 739 739 740 742 744 745 748 751 754 758 762 765 767 769 772 774 775 776 776 777 777 778 778 779 779 779 780 781 783 784 784 785 785 785 786 786 786 785 784 784 783
734 735 736 738 740 743 744 746 749 753 756 760 762 765 769 771 773 774 774 774 775 775 775 776 777 777 777 778 779 780 781 781 782 782 782 783 783 783 782 781 780 779
Wind_Speed
34 34 32 31 30 27 26 24 24 25 24 23 22 19 18 17 15 14 11 10 10 10 10 9 9 9 9 9 9 8 7 6 6 5 5 5 5 6 7 6 6 6
35 35 33 32 31 28 26 25 25 25 25 23 21 19 17 16 14 13 12 11 12 11 11 11 10 10 9 9 9 8 8 7 7 6 6 6 6 6 7 7 7 7
36 35 34 33 31 29 27 25 25 25 24 22 21 18 17 16 15 14 13 13 13 12 12 11 11 10 9 9 9 8 8 8 7 7 8 8 8 8 8 8 8 9
37 36 34 32 31 29 26 25 25 24 24 22 20 18 18 17 15 15 15 14 15 14 13 11 11 11 10 10 9 9 9 9 9 9 10 10 10 10 10 9 10 10
38 36 34 32 31 28 26 25 25 25 24 22 20 19 18 18 17 16 16 16 16 15 13 12 12 11 11 10 10 10 10 10 10 11 11 11 11 11 11 11 12 11
38 36 35 33 31 28 25 25 25 25 25 23 21 20 19 19 18 17 17 17 16 16 14 13 12 12 11 11 11 11 10 10 11 12 12 12 11 12 13 14 14 14
37 36 35 33 30 27 25 25 25 25 25 23 21 21 20 20 19 18 18 17 17 16 15 14 13 13 12 12 12 12 12 12 12 13 13 13 12 12 13 15 16 16
37 36 34 31 27 25 24 24 25 25 25 23 21 21 20 19 19 19 18 18 18 17 16 15 15 14 14 14 14 14 14 14 14 15 15 15 14 14 15 15 16 16
34 31 28 26 24 24 23 24 25 25 24 22 21 21 20 20 20 20 19 19 19 19 17 17 16 16 15 15 16 16 16 17 17 18 18 17 16 16 15 15 15 15
20 18 20 23 25 24 24 26 27 26 24 22 22 21 20 21 21 21 20 20 21 21 20 19 19 18 17 17 18 19 19 20 20 21 21 21 19 18 17 15 14 14
15 18 23 27 29 27 26 28 28 27 24 22 22 22 21 22 22 22 22 22 23 23 22 22 21 20 19 19 20 21 21 22 22 22 22 22 22 21 20 18 16 15
25 32 34 33 33 30 28 29 28 26 24 23 23 23 22 22 23 24 25 24 24 24 24 24 22 22 21 21 22 22 23 23 23 22 21 21 21 21 21 21 19 17
39 41 40 38 36 30 28 29 28 26 26 25 25 25 24 24 25 26 26 26 25 25 25 25 23 23 23 22 23 24 24 23 21 20 20 20 21 21 20 20 21 20
40 42 43 41 37 32 29 29 29 29 28 27 27 27 26 26 27 27 27 27 26 26 26 25 24 24 24 24 24 23 22 21 20 18 18 19 20 20 20 20 21 22
39 42 41 37 36 34 31 31 31 32 31 30 29 28 29 29 28 27 27 27 27 27 26 25 25 25 24 23 21 20 20 20 19 17 17 18 19 18 19 20 21 21
38 35 29 29 34 36 35 35 37 36 34 33 32 31 31 31 29 28 28 28 28 27 26 26 26 25 24 21 20 20 20 20 19 17 16 17 18 17 17 18 19 19
33 29 27 32 40 40 39 41 41 38 36 34 33 32 33 32 30 29 29 29 28 27 27 27 26 25 23 21 20 20 20 20 19 18 17 18 19 18 18 17 17 18
34 34 36 42 45 42 42 44 41 37 35 34 33 33 33 32 31 30 30 28 27 27 28 28 27 25 22 22 22 21 21 21 21 20 20 20 20 20 20 19 19 19
36 39 41 44 44 42 42 42 38 35 35 35 34 34 34 33 31 31 30 29 27 27 27 29 28 25 23 22 23 22 21 22 23 22 22 22 22 22 23 23 22 22
35 40 42 44 45 41 38 38 36 35 35 35 35 33 33 32 31 31 30 29 28 26 26 28 28 26 24 23 24 23 22 23 24 25 25 25 25 25 25 25 26 25
34 40 43 44 41 36 33 34 34 33 33 33 34 34 33 32 30 29 28 28 27 25 24 27 29 27 25 24 24 25 23 24 25 26 27 27 27 27 27 28 27 26
34 41 44 40 36 33 32 33 32 31 31 31 32 32 31 30 29 28 27 27 27 26 25 28 29 28 25 25 26 26 25 25 26 27 28 28 28 27 27 26 26 26
36 42 43 38 34 32 32 31 31 31 30 29 29 28 27 28 27 26 26 27 27 27 28 30 30 27 25 25 26 26 25 25 26 28 28 28 26 23 21 22 24 24
36 42 43 39 34 32 30 28 28 31 31 29 28 27 26 26 24 23 25 28 28 29 30 30 30 28 25 24 24 24 24 23 25 26 25 23 21 20 21 23 24 22
34 42 44 37 30 28 29 27 26 29 31 30 29 27 24 22 21 22 26 28 29 30 29 29 29 28 26 25 24 24 23 22 22 21 19 17 16 20 25 25 24 22
36 44 44 35 27 25 25 25 27 29 29 27 26 22 20 20 21 24 26 26 26 27 26 25 26 27 26 25 23 23 22 19 18 17 16 16 16 19 22 21 20 21
Wind_Direction
225 224 225 226 226 227 226 224 222 220 220 219 218 219 221 221 218 219 228 236 229 222 230 242 246 244 239 231 231 234 235 236 236 242 248 248 250 246 245 246 242 240
223 223 224 224 224 225 226 226 226 225 224 224 224 226 227 224 221 224 233 234 225 223 236 244 240 235 230 225 228 230 233 236 236 243 251 254 258 256 253 250 248 249
221 221 221 222 223 223 225 226 227 228 228 228 227 228 227 223 222 227 232 229 222 226 238 239 231 228 226 224 227 229 233 239 243 249 256 259 263 265 265 262 258 256
220 220 220 222 223 224 226 226 226 226 227 227 228 228 225 222 223 226 228 226 223 227 232 231 227 227 228 228 230 234 242 249 254 258 262 265 267 269 271 270 268 265
219 219 220 221 223 224 225 225 226 225 225 226 227 226 223 220 221 224 226 224 222 224 226 228 231 232 233 235 237 242 250 256 262 266 267 268 270 271 271 271 270 267
219 218 218 219 220 221 222 224 226 226 225 225 225 223 221 219 221 225 226 222 220 221 223 228 234 236 238 241 243 248 254 259 265 269 270 269 271 273 273 271 269 266
217 216 216 216 216 218 221 223 225 225 225 225 225 224 221 219 222 226 226 222 221 223 225 230 234 236 240 243 246 251 255 259 264 269 270 270 272 274 274 273 271 268
215 214 213 211 211 214 219 223 226 226 225 225 227 227 224 222 224 227 226 224 225 227 228 231 235 236 241 245 249 252 255 258 261 264 266 266 268 271 272 272 272 272
211 208 205 204 207 212 217 224 228 229 227 226 229 229 226 225 227 227 227 226 228 230 230 232 236 238 242 247 250 254 255 257 259 260 262 262 262 264 267 270 273 274
193 188 194 203 209 214 219 224 227 229 228 229 232 232 228 227 228 228 228 228 230 231 231 233 237 240 244 248 252 255 257 259 262 263 263 262 260 261 264 267 270 272
160 185 203 209 213 216 219 223 226 227 227 230 234 234 231 229 228 228 228 229 229 230 231 233 237 241 246 250 254 257 260 263 266 268 267 264 261 260 262 265 266 268
182 200 208 211 212 213 216 223 226 226 227 231 235 236 233 231 230 229 230 231 231 231 233 235 239 243 248 252 256 260 263 266 268 269 268 267 263 260 260 263 266 268
195 201 207 209 206 205 213 221 224 225 227 231 235 237 235 233 232 233 234 235 237 238 239 239 242 246 251 255 259 261 263 264 264 264 266 267 267 263 260 261 265 270
193 201 207 204 198 198 207 216 221 225 228 232 236 238 238 237 236 236 237 238 240 242 243 244 245 249 254 257 259 259 258 257 256 258 262 265 267 266 262 261 265 269
195 203 202 195 193 198 203 209 217 222 225 230 235 238 241 240 238 239 241 241 242 244 246 246 246 249 254 256 256 254 253 252 252 256 260 263 263 263 262 262 264 265
195 196 189 185 193 199 200 205 213 218 220 225 231 236 241 242 239 240 242 243 245 246 246 245 246 249 254 254 252 251 251 250 252 256 259 260 260 259 259 260 262 264
187 181 179 190 199 201 200 204 212 216 217 221 227 233 239 242 240 240 241 243 245 246 245 244 245 250 254 252 250 250 249 248 251 256 256 257 258 258 258 258 260 264
181 180 187 197 202 202 201 204 211 216 216 218 226 232 237 240 240 239 240 242 243 245 245 244 247 252 255 254 253 253 251 249 251 254 255 257 258 257 259 261 262 264
181 184 190 198 203 204 203 205 211 215 215 218 224 230 235 238 240 242 242 243 244 247 246 244 249 255 257 257 257 258 257 253 251 254 257 258 258 260 262 263 264 265
182 187 192 199 203 205 206 207 211 214 215 218 222 228 233 237 239 242 242 243 247 251 250 248 253 258 260 261 261 262 262 257 253 256 258 259 262 263 265 265 266 266
183 188 195 201 203 205 208 211 213 215 216 219 223 228 233 236 240 242 243 244 250 256 256 255 257 259 261 264 264 265 265 259 256 257 259 261 263 263 265 266 266 267
185 190 197 202 202 204 209 213 215 216 218 221 225 229 233 238 242 245 246 249 255 259 260 259 261 262 263 266 267 266 263 259 257 258 261 263 263 264 265 265 265 266
188 191 196 202 203 204 208 211 213 215 217 221 225 229 234 240 243 246 250 254 257 259 261 261 262 264 266 269 271 268 263 259 257 258 261 263 263 265 266 265 268 267
190 191 198 205 205 205 208 209 210 212 215 220 224 227 233 238 243 249 255 258 259 260 261 261 261 264 266 269 273 272 267 262 259 259 261 262 263 266 266 269 271 266
191 194 203 207 204 205 207 206 206 209 213 219 224 227 234 240 246 254 258 260 261 262 262 259 259 264 266 266 268 269 268 266 262 258 256 257 262 266 267 270 267 260
193 198 205 207 206 206 204 201 204 208 211 216 221 226 235 246 255 260 261 261 262 263 263 260 258 262 266 267 267 268 270 267 259 255 256 258 259 260 262 265 259 258